{"data":{"norad_id":62365,"intl_designator":"2024-245A","name":"TIANQI-33","alt_names":[],"object_type":"PAYLOAD","status":"ACTIVE","operator":null,"country":"PRC","launch_date":"2024-12-19","launch_site_code":"YSLA","launch_vehicle":null,"mission":null,"orbit_class":"UNKNOWN","rcs_meters":null,"size_class":null,"mass_kg":null,"dimensions":null,"purposes":[],"wikipedia_slug":null,"has_3d_model":false,"image_url":null,"decayed_at":null,"tle_current":{"epoch":"2026-05-25T04:09:42.184224Z","epoch_age_seconds":59448,"freshness":"FRESH","line1":"1 62365U 24245A   26145.17340491  .00000038  00000+0  11431-3 0  9999","line2":"2 62365  44.9841  64.4306 0008496 273.0983  86.8877 13.99198377 73131","mean_motion":13.99198377,"eccentricity":0.0008496,"inclination_deg":44.9841,"raan_deg":64.4306,"arg_perigee_deg":273.0983,"mean_anomaly_deg":86.8877,"bstar":0.00011431,"rev_number":7313,"period_min":102.9160713499,"perigee_km":890.39175285688,"apogee_km":902.75293897746,"semimajor_km":7274.7093459172,"source":"CELESTRAK","updated_at":"2026-05-25T13:38:02.941456Z"}}}